Livermore, CA

7:49 AM PDT on May 23, 2017 (GMT -0700)
Livermore Municipal

Weather History for KLVK - October, 2014

Change the Weather History Date:

Sunday, October 12, 2014

  Actual Average Record
Temperature  
Mean Temperature 74 °F 64 °F  
Max Temperature 91 °F 78 °F 96 °F (1971)
Min Temperature 57 °F 50 °F 35 °F (1947)
Degree Days  
Heating Degree Days 0 2  
Month to date heating degree days 0 21  
Since 1 July heating degree days 0 45  
Cooling Degree Days 9 2  
Month to date cooling degree days 101 28  
Year to date cooling degree days 1247 817  
Growing Degree Days 24 (Base 50)    
Moisture  
Dew Point 27 °F    
Average Humidity 37    
Maximum Humidity 67    
Minimum Humidity 6    
Precipitation  
Precipitation 0.00 in 0.03 in 0.22 in (1972)
Month to date precipitation 0.00 0.23  
Year to date precipitation 5.09 10.36  
Since 1 July precipitation 0.21  
Sea Level Pressure  
Sea Level Pressure 29.94 in    
Wind  
Wind Speed 6 mph (NE)    
Max Wind Speed 18 mph    
Max Gust Speed 24 mph    
Visibility 10 miles    
Events      
T = Trace of Precipitation, MM = Missing Value Source: NWS Daily Summary

Daily Weather History Graph

Daily Weather History Graph

Search for Another Location

Airport or City:

Trip Planner

Search our weather history database for the weather conditions in past years. The results will help you decide how hot, cold, wet, or windy it might be!

Date:

Astronomy

Oct. 12, 2014 Rise Set
Actual Time 7:12 AM PDT 6:33 PM PDT
Civil Twilight 6:46 AM PDT 7:00 PM PDT
Nautical Twilight 6:16 AM PDT 7:30 PM PDT
Astronomical Twilight 5:45 AM PDT 8:00 PM PDT
Moon 10:00 PM PDT (10/12) 11:36 AM PDT (10/12)
Length of Visible Light 12h 13m
Length of Day
11h 21m
Waning Gibbous, 78% of the Moon is Illuminated
Oct 12
Waning Gibbous
Oct 15
Last Quarter
Oct 23
New
Oct 30
First Quarter
Nov 6
Full

Hourly Weather History & Observations

Time (PDT) Temp. Dew Point Humidity Pressure Visibility Wind Dir Wind Speed Gust Speed Precip Events Conditions
12:53 AM 61.0 °F 46.0 °F 58% 29.97 in 10.0 mi Calm Calm - N/A   Clear
1:53 AM 59.0 °F 45.0 °F 60% 29.98 in 10.0 mi Calm Calm - N/A   Clear
3:53 AM 57.9 °F 46.0 °F 65% 29.97 in 10.0 mi Calm Calm - N/A   Clear
4:53 AM 60.1 °F 46.9 °F 62% 29.96 in 10.0 mi Calm Calm - N/A   Clear
5:53 AM 72.0 °F 30.0 °F 21% 29.96 in 10.0 mi Calm Calm - N/A   Clear
6:53 AM 72.0 °F 28.0 °F 20% 29.97 in 10.0 mi NE 4.6 mph - N/A   Clear
7:53 AM 75.0 °F 25.0 °F 16% 29.97 in 10.0 mi NNE 10.4 mph - N/A   Clear
8:53 AM 78.1 °F 24.1 °F 14% 29.98 in 10.0 mi NNE 10.4 mph - N/A   Clear
9:53 AM 80.1 °F 24.1 °F 13% 29.99 in 10.0 mi East 10.4 mph - N/A   Clear
10:53 AM 82.0 °F 23.0 °F 11% 29.98 in 10.0 mi NE 9.2 mph - N/A   Clear
11:53 AM 84.9 °F 19.0 °F 9% 29.96 in 10.0 mi NNE 11.5 mph 20.7 mph N/A   Clear
12:53 PM 87.1 °F 18.0 °F 8% 29.94 in 10.0 mi ENE 15.0 mph - N/A   Clear
1:53 PM 89.1 °F 17.1 °F 7% 29.92 in 10.0 mi North 15.0 mph 19.6 mph N/A   Clear
2:53 PM 91.0 °F 18.0 °F 7% 29.90 in 10.0 mi NNE 9.2 mph 19.6 mph N/A   Clear
3:53 PM 91.0 °F 14.0 °F 6% 29.89 in 10.0 mi NNE 8.1 mph - N/A   Clear
4:53 PM 90.0 °F 17.1 °F 7% 29.88 in 10.0 mi ENE 12.7 mph - N/A   Clear
5:53 PM 87.1 °F 18.0 °F 8% 29.88 in 10.0 mi ENE 9.2 mph - N/A   Clear
6:53 PM 82.0 °F 19.9 °F 10% 29.89 in 10.0 mi ENE 8.1 mph - N/A   Clear
7:53 PM 77.0 °F 25.0 °F 15% 29.91 in 10.0 mi Calm Calm - N/A   Clear
8:53 PM 73.0 °F 27.0 °F 18% 29.92 in 10.0 mi ESE 5.8 mph - N/A   Clear
9:53 PM 70.0 °F 27.0 °F 20% 29.92 in 10.0 mi NNE 3.5 mph - N/A   Clear
10:53 PM 70.0 °F 26.1 °F 19% 29.92 in 10.0 mi Calm Calm - N/A   Clear
11:53 PM 66.9 °F 26.1 °F 21% 29.91 in 10.0 mi NE 4.6 mph - N/A   Clear